www.pogodaiklimat.ru
ПОГОДА в Сантьяго
Время
(UTC), дата
01 7.11
02 7.11
03 7.11
04 7.11
05 7.11
06 7.11
07 7.11
08 7.11
09 7.11
10 7.11
11 7.11
12 7.11
13 7.11
14 7.11
15 7.11
16 7.11
17 7.11
18 7.11
19 7.11
20 7.11
21 7.11
22 7.11
23 7.11
00 8.11
01 8.11
02 8.11
03 8.11
04 8.11
05 8.11
06 8.11
07 8.11
08 8.11
09 8.11
10 8.11
11 8.11
12 8.11
13 8.11
14 8.11
15 8.11
16 8.11
17 8.11
18 8.11
19 8.11
20 8.11
21 8.11
22 8.11
23 8.11
00 9.11
01 9.11
02 9.11
03 9.11
04 9.11
05 9.11
06 9.11
07 9.11
08 9.11
09 9.11
10 9.11
11 9.11
12 9.11
13 9.11
14 9.11
15 9.11
16 9.11
17 9.11
18 9.11
19 9.11
20 9.11
21 9.11
22 9.11
23 9.11
00 10.11
01 10.11
02 10.11
03 10.11
04 10.11
05 10.11
06 10.11
07 10.11
08 10.11
09 10.11
10 10.11
11 10.11
12 10.11
13 10.11
14 10.11
15 10.11
16 10.11
17 10.11
18 10.11
20 10.11
21 10.11
22 10.11
23 10.11
00 11.11
01 11.11
02 11.11
03 11.11
04 11.11
05 11.11
06 11.11
08 11.11
09 11.11
10 11.11
11 11.11
12 11.11
13 11.11
14 11.11
15 11.11
16 11.11
17 11.11
18 11.11
19 11.11
20 11.11
02 12.11
03 12.11
04 12.11
05 12.11
06 12.11
07 12.11
08 12.11
09 12.11
10 12.11
11 12.11
12 12.11
13 12.11
14 12.11
15 12.11
16 12.11
17 12.11
18 12.11
19 12.11
20 12.11
21 12.11
22 12.11
23 12.11
00 13.11
01 13.11
02 13.11
03 13.11
04 13.11
05 13.11
06 13.11
07 13.11
08 13.11
09 13.11
10 13.11
11 13.11
12 13.11
13 13.11
14 13.11
15 13.11
16 13.11
17 13.11
18 13.11
19 13.11
Ветер
(напр.,м/с)
Видим. Явления Облачность Т
(С)
Тd
(С)
f
(%)
Тe
(С)
Тes
(С)
Комфортность P
(гПа)
Po
(гПа)
Тmin
(С)
Tmax
(С)
R
(мм)
R24
(мм)
S
(см)
З 2 20 км {дождь} н/о +7.6 +7.2 97 +5 +5 тепло 1015.7 971.7
СЗ 3 15 км {дождь} н/о +8.0 +7.1 94 +5 +5 тепло 1015.6 971.7
СЗ 4 15 км {дождь} 6/6 600 м
[Sc]
+7.6 +6.8 95 +4 +4 по сезону 1015.8 971.8 0.8
З 3 19 км {дождь} н/о +6.8 +6.1 95 +4 +4 по сезону 1015.5 971.4
З 3 21 км н/о +6.4 +5.7 95 +3 +3 по сезону 1015.5 971.3
З 2 20 км 6/6 600 м
[Cu Sc]
+7.1 +6.4 95 +5 +5 тепло 1015.5 971.4 +6.3 0.2
З 2 22 км 4/4 600 м
[Cu Sc]
+6.8 +5.6 92 +4 +4 по сезону 1015.3 971.2
ЮЗ 4 14 км сильн. дождь н/о +7.4 +5.8 90 +4 +4 по сезону 1015.5 971.5
З 2 30 км ливневой дождь 9/9 600 м
[Cu Sc]
+6.7 +5.8 94 +4 +4 по сезону 1016.2 972.0 2
СЗ 7 14 км сильн. дождь н/о +6.3 +4.8 90 +1 +1 по сезону 1016.7 972.4
ЮЗ 3 30 км {дождь} н/о +7.6 +6.3 91 +5 +5 тепло 1016.0 972.0
З 5 20 км слаб. ливневой дождь 10/10 300 м
[Cu Sc]
+7.2 +5.9 91 +3 +3 по сезону 1015.7 971.6 2
СЗ 5 30 км {дождь} н/о +7.5 +6.0 90 +4 +4 по сезону 1015.3 971.3
СЗ 6 30 км н/о +8.7 +4.8 76 +5 +5 тепло 1014.7 970.9
З 5 30 км слаб. ливневой дождь 9/9 300 м
[Cu Sc]
+7.7 +4.4 80 +4 +4 по сезону 1015.0 971.0 1
ЮЗ 4 15 км сильн. дождь н/о +6.5 +4.8 89 +3 +3 по сезону 1014.8 970.6
З 6 9000 м сильн. дождь н/о +6.1 +4.7 91 +1 +1 по сезону 1014.9 970.7
ЮЗ 3 30 км 5/5 600 м
[Cu Sc]
+4.9 +3.2 89 +1 +1 по сезону 1014.9 970.5 +9.3 3
З 4 7000 м сильн. дождь н/о +5.8 +4.1 89 +2 +2 по сезону 1015.9 971.6
СЗ 4 30 км {дождь} н/о +5.4 +3.6 88 +2 +2 по сезону 1015.4 971.0
ЮЗ 3 20 км {ливн. осадки, дождь} 8/6 600 м
[Cb calv Ac As Ci sp]
+5.7 +3.9 88 +2 +2 по сезону 1015.4 971.1 0.5
З 3 29 км {дождь} н/о +5.6 +4.1 90 +2 +2 по сезону 1016.1 971.7
СЗ 4 7000 м сильн. дождь н/о +6.1 +4.3 88 +2 +2 по сезону 1016.3 972.0
СЗ 3 5000 м ливневой дождь 9/8 600 м
[Cb cap Ac cuf Ci ing]
+5.0 +4.3 95 +1 +1 по сезону 1016.9 972.4 2
ЮЗ 2 30 км {дождь} н/о +4.6 +3.9 95 +2 +2 по сезону 1016.6 972.0
СЗ 3 30 км сильн. дождь н/о +4.8 +4.4 97 +1 +1 по сезону 1017.1 972.5
З 2 30 км в посл. час ливневой дождь 9/8 600 м
[Cb cap Ac cuf Ci ing]
+4.9 +3.9 93 +3 +3 по сезону 1017.0 972.5 3
СЗ 3 30 км {дождь} н/о +4.7 +3.8 94 +1 +1 по сезону 1017.8 973.2
З 1 30 км сильн. дождь н/о +5.0 +4.4 96 +3 +3 по сезону 1018.6 974.0
ЮЗ 3 15 км в посл. час ливневой дождь 8/8 600 м
[Cb calv Ac As Ci ing]
+4.2 +4.2 100 +1 +1 по сезону 1019.4 974.6 +4.1 0.5
СЗ 2 1300 м сильн. дождь н/о +5.1 +4.8 98 +3 +3 по сезону 1019.6 975.0
Ю 3 н/о слаб. дождь н/о +4.6 +4.6 100 +1 +1 по сезону 1020.6 975.9
З 2 1200 м ливневой дождь 9/9 600 м
[Cb calv Ac As Ci sp]
+5.8 +5.8 100 +4 +4 по сезону 1021.4 976.8 2
З 3 27 км {дождь} н/о +8.3 +6.8 90 +6 +6 тепло 1021.6 977.4
ЮЗ 4 16 км {дождь} н/о +8.9 +7.7 92 +6 +6 тепло 1022.1 978.0
СЗ 5 8000 м ливневой дождь 8/8 600 м
[Cb calv]
+8.6 +7.1 90 +5 +5 тепло 1022.2 978.1 0.9
СЗ 4 18 км 6/6 600 м
[Cb calv]
+11.3 +7.7 78 +9 +11 тепло 1021.3 977.6
С 6 30 км н/о +12.0 +6.2 68 +9 +9 тепло 1021.4 977.8
СЗ 6 25 км {ливн. осадки} 4/4 600 м
[Cu Sc]
+10.1 +6.2 77 +7 +8 тепло 1021.9 978.0 0.0
СЗ 4 28 км {дождь} н/о +9.8 +6.9 82 +7 +7 тепло 1022.6 978.6
З 2 19 км н/о +8.5 +6.2 85 +7 +7 тепло 1023.0 978.8
З 2 15 км слаб. ливневой дождь 8/8 600 м
[Cu Sc]
+8.2 +6.7 90 +6 +6 тепло 1023.9 979.6 +12.2 0.1
ЮЗ 2 27 км {дождь} н/о +7.4 +6.5 94 +6 +6 тепло 1024.0 979.6
ЮЗ 2 24 км н/о +8.5 +6.1 85 +7 +7 тепло 1023.8 979.6
ЮЗ 2 20 км {ливн. осадки} 4/3 1000 м
[Cu Sc Ac trans]
+7.7 +5.9 88 +6 +6 тепло 1024.1 979.7 0.2
ЮЗ 3 29 км н/о +8.0 +5.3 83 +6 +6 тепло 1024.4 980.0
ЮЗ 3 24 км н/о +8.4 +5.7 83 +6 +6 тепло 1024.0 979.7
ЮЗ 3 30 км 9/9 1500 м
[Sc]
+7.8 +5.8 87 +5 +5 тепло 1023.8 979.4
Ю 4 25 км н/о +7.8 +5.9 88 +5 +5 тепло 1022.9 978.6
Ю 3 24 км н/о +7.9 +6.0 88 +5 +5 тепло 1022.3 978.0
Ю 2 20 км 10/10 600 м
[Sc]
+7.5 +6.4 93 +5 +5 тепло 1021.8 977.5
Ю 4 9000 м сильн. дождь н/о +7.5 +7.2 98 +4 +4 по сезону 1021.0 976.7
Ю 6 6000 м сильн. дождь н/о +8.1 +8.1 100 +4 +4 по сезону 1020.1 976.0
ЮЗ 6 7000 м слаб. дождь 10/10 50 м
[Frnb]
+8.4 +8.4 100 +4 +4 по сезону 1020.0 975.9 +7.4 2
ЮЗ 6 8000 м сильн. дождь н/о +8.6 +8.6 100 +4 +4 по сезону 1019.5 975.5
Ю 5 1000 м туман {дождь} н/о +8.8 +8.8 100 +5 +5 тепло 1019.6 975.6
Ю 3 15 км слаб. дождь 10/10 50 м
[Frnb]
+9.4 +9.4 100 +7 +7 тепло 1020.1 976.2 3
З 2 7000 м слаб. дождь н/о +10.5 +10.5 100 +9 +9 тепло 1020.3 976.6
СЗ 3 15 км слаб. дождь н/о +11.5 +11.3 99 +9 +9 тепло 1020.5 977.0
С 6 20 км {дождь} 9/9 100 м
[Cu Sc]
+12.9 +9.2 78 +10 +11 тепло 1020.8 977.4 0.1
СЗ 3 15 км 10/9 200 м
[Cu Sc As trans]
+12.5 +9.8 84 +11 +11 тепло 1020.6 977.2
СЗ 6 13 км н/о +12.2 +8.8 80 +9 +9 тепло 1020.8 977.3
СЗ 4 20 км 9/9 300 м
[Cu Sc]
+11.7 +8.5 81 +9 +10 тепло 1021.1 977.5
СЗ 4 14 км {дождь} н/о +10.6 +9.0 90 +8 +8 тепло 1021.8 978.0
З 2 12 км н/о +10.3 +8.7 90 +9 +9 тепло 1021.8 978.0
СЗ 5 7000 м дождь 10/9 200 м
[Cu Sc Ac As]
+9.7 +8.9 95 +6 +6 тепло 1022.6 978.6 +13.0 0.7
СЗ 7 9000 м {дождь} н/о +9.5 +8.4 93 +6 +6 тепло 1023.1 979.1
С 8 20 км н/о +8.7 +6.1 84 +4 +4 по сезону 1023.3 979.1
СЗ 5 15 км в посл. час дождь 6/5 600 м
[Cu Sc Ac As Cs]
+8.4 +6.5 88 +5 +5 тепло 1023.4 979.2 0.0
СЗ 4 19 км {дождь} н/о +7.9 +6.2 89 +5 +5 тепло 1023.9 979.6
З 2 16 км {дождь} н/о +7.4 +6.3 93 +5 +5 тепло 1024.2 979.8
З 2 15 км 5/5 600 м
[Cu Sc Ac As]
+7.2 +6.1 93 +5 +5 тепло 1024.5 980.0 0.0
З 3 15 км н/о +7.4 +6.2 92 +5 +5 тепло 1024.4 980.0
СЗ 2 15 км сильн. дождь н/о +7.4 +6.7 95 +5 +5 тепло 1024.3 979.9
СЗ 3 20 км {морось} 5/5 600 м
[Cu Sc]
+7.0 +5.9 93 +4 +4 по сезону 1024.0 979.5 0.8
З 2 13 км слаб. дождь н/о +7.1 +6.4 95 +5 +5 тепло 1023.6 979.1
штиль 0 8000 м дымка н/о +6.2 +5.9 98 +5 +5 тепло 1023.7 979.1
ЮЗ 1 15 км в посл. час дождь 6/5 600 м
[Cu Sc Ac As]
+6.0 +5.9 99 +5 +5 тепло 1023.6 979.0 +6.0 0.1
З 2 8000 м слаб. дождь 9/8 600 м
[Cu Sc Ac As]
+7.3 +6.1 92 +5 +5 тепло 1023.3 978.9
СЗ 2 9000 м морось {дождь} н/о +7.5 +6.8 95 +5 +5 тепло 1023.7 979.3
ЮЗ 3 7000 м слаб. дождь 10/6 600 м
[Sc Ac As]
+7.6 +7.3 98 +5 +5 тепло 1024.0 979.6 0.2
С 4 9000 м сильн. дождь н/о +8.3 +7.2 93 +5 +5 тепло 1024.1 979.8
С 4 10 км сильн. дождь н/о +8.1 +7.2 94 +5 +5 тепло 1024.5 980.2
С 3 10 км слаб. дождь 10/8 300 м
[St Ac As]
+7.9 +7.5 97 +5 +5 тепло 1024.0 979.7 4
С 1 9000 м сильн. дождь н/о +8.0 +7.4 96 +7 +7 тепло 1023.5 979.2
З 2 8000 м морось {дождь} н/о +8.0 +7.6 97 +6 +6 тепло 1023.0 978.7
штиль 0 5000 м морось {дождь} н/о +8.2 +7.9 98 +7 +7 тепло 1022.5 978.3 2
Ю 2 3600 м сильн. дождь н/о +7.6 +7.6 100 +5 +5 тепло 1022.3 978.0
Ю 2 2500 м сильн. дождь н/о +7.3 +7.3 100 +5 +5 тепло 1022.2 977.9
Ю 3 3000 м слаб. дождь {туман} ?/? +6.9 +6.9 100 +4 +4 по сезону 1021.9 977.5 +8.4 3
ЮВ 2 1600 м морось {дождь} н/о +7.0 +7.0 100 +4 +4 по сезону 1021.5 977.1
ЮВ 2 1500 м слаб. дождь 10/9 <50 м
[Frnb Ac As]
+7.1 +7.1 100 +5 +5 тепло 1021.6 977.2 1
ЮВ 1 н/о н/о +7.2 +7.2 100 +6 +6 тепло 1021.7 977.4
Ю 3 н/о н/о +7.3 +7.3 100 +4 +4 по сезону 1021.1 976.8
ЮВ 1 700 м слаб. дождь {морось} 10/9 <50 м
[Frnb Ac As]
+7.4 +7.4 100 +7 +7 тепло 1020.8 976.5 1
ЮЗ 1 2800 м в посл. час туман н/о +8.3 +8.3 100 +7 +7 тепло 1020.6 976.5
Ю 1 н/о н/о +8.2 +8.2 100 +7 +7 тепло 1020.1 976.0
Ю 2 1200 м слаб. дождь {морось} 10/9 50 м
[Frnb Ac As]
+8.8 +8.8 100 +7 +7 тепло 1019.7 975.7 0.5
ЮВ 1 н/о н/о +8.8 +8.8 100 +8 +8 тепло 1019.1 975.2
Ю 1 н/о н/о +9.2 +9.2 100 +8 +8 тепло 1018.9 975.0
СЗ 2 700 м слаб. морось {дождь} 10/9 50 м
[Frnb Ac As]
+10.8 +10.8 100 +9 +9 тепло 1018.8 975.2 +6.8 0.4
С 6 3300 м дымка {дождь} н/о +10.5 +10.5 100 +7 +7 тепло 1020.6 976.9
С 5 7000 м дымка {дождь, туман} 10/8 200 м
[Frnb Ac As Cs]
+10.0 +9.5 97 +7 +7 тепло 1021.1 977.3 0.2
С 4 7000 м дымка н/о +10.2 +9.4 95 +7 +7 тепло 1021.7 977.9
С 3 7000 м дымка н/о +10.4 +9.0 91 +8 +8 тепло 1022.2 978.4
С 3 12 км {морось, туман} 10/5 300 м
[Sc Ac As Cs]
+11.3 +8.0 80 +9 +10 тепло 1022.3 978.6 0.0
С 4 9000 м дымка н/о +11.3 +8.1 81 +9 +9 тепло 1021.7 978.0
С 3 10 км дымка н/о +11.6 +7.7 77 +10 +10 тепло 1021.6 978.0
С 4 12 км 6/5 600 м
[Sc Ac As Cs]
+10.8 +7.2 78 +8 +9 тепло 1021.9 978.1
С 4 12 км н/о +10.0 +6.3 78 +7 +7 тепло 1022.1 978.2
С 3 13 км н/о +9.6 +6.1 79 +8 +8 тепло 1022.6 978.6
С 3 12 км 8/4 1000 м
[Sc Ac As Cs]
+8.6 +6.2 85 +6 +6 тепло 1023.1 978.9 +11.9
З 2 10 км н/о +7.9 +6.8 93 +6 +6 тепло 1023.3 979.0
СЗ 2 10 км н/о +8.6 +6.9 89 +7 +7 тепло 1023.8 979.6
штиль 0 7000 м слаб. дождь н/о +6.8 +6.8 100 +6 +6 тепло 1022.1 977.7
ЮЗ 1 4000 м дождь {метель} 9/4 300 м
[Frnb Ac As]
+7.1 +7.1 100 +6 +6 тепло 1021.3 977.0 0.1
Ю 3 9000 м слаб. дождь н/о +7.1 +7.1 100 +4 +4 по сезону 1020.6 976.3
Ю 3 9000 м дымка н/о +7.3 +6.9 97 +4 +4 по сезону 1020.3 976.0
ЮЗ 1 4000 м дождь 10/6 300 м
[Frnb Ac As]
+7.5 +6.9 96 +6 +6 тепло 1019.9 975.7 +6.3 0.0
Ю 3 7000 м слаб. морось {дождь} н/о +7.1 +7.0 99 +4 +4 по сезону 1019.4 975.1
Ю 3 4000 м дымка н/о +7.2 +7.2 100 +4 +4 по сезону 1019.4 975.2
Ю 3 3000 м слаб. морось 10/10 50 м
[Frnb]
+7.4 +7.4 100 +4 +4 по сезону 1019.2 975.0 0.4
Ю 4 н/о н/о +8.2 +8.2 100 +5 +5 тепло 1018.1 974.1
Ю 5 1000 м сильн. дождь {морось} н/о +8.8 +8.8 100 +5 +5 тепло 1017.3 973.4
Ю 5 1800 м слаб. морось 10/10 50 м
[Frnb]
+9.3 +9.3 100 +6 +6 тепло 1015.9 972.2 1
Ю 6 2500 м слаб. морось 10/10 50 м
[Frnb]
+9.9 +9.9 100 +6 +6 тепло 1013.8 970.3
ЮЗ 6 н/о сильн. дождь н/о +10.6 +10.6 100 +7 +7 тепло 1012.2 968.9
ЮЗ 6 2500 м дождь 10/10 50 м
[Frnb]
+11.6 +11.6 100 +8 +8 тепло 1010.6 967.4 7
ЮЗ 6 н/о сильн. дождь н/о +12.9 +12.9 100 +10 +10 тепло 1009.9 967.0
З 5 н/о сильн. дождь н/о +13.4 +13.2 99 +11 +11 тепло 1009.2 966.4
З 5 7000 м дождь н/о +13.5 +13.3 99 +11 +11 тепло 1008.8 966.0 +13.5 8
З 5 н/о морось {дождь} н/о +13.6 +13.4 99 +12 +12 тепло 1008.4 965.7
З 4 5000 м морось {дождь} н/о +13.7 +13.6 99 +12 +12 тепло 1007.8 965.1
З 5 3000 м дождь 10/10 50 м
[Frnb]
+13.9 +13.9 100 +12 +12 тепло 1007.2 964.6 3
З 5 7000 м сильн. дождь н/о +14.0 +13.8 99 +12 +12 тепло 1007.0 964.4
З 4 30 км {дождь} н/о +14.0 +13.7 98 +12 +12 тепло 1007.1 964.5
З 4 8000 м слаб. дождь 10/10 100 м
[Frnb]
+14.0 +13.9 99 +12 +12 тепло 1006.8 964.2 3
С 6 3000 м сильн. дождь н/о +12.5 +12.5 100 +10 +10 тепло 1008.2 965.3
С 4 17 км дымка {дождь} н/о +11.7 +11.7 100 +9 +9 тепло 1009.0 965.9
С 5 6000 м дымка {дождь, туман} 10/10 50 м
[Frnb]
+11.3 +11.3 100 +9 +9 тепло 1010.3 967.2 8
С 2 10 км н/о +10.8 +10.6 99 +9 +9 тепло 1010.8 967.6
С 3 17 км слаб. морось {дождь} н/о +10.5 +10.3 99 +8 +8 тепло 1012.1 968.8
С 3 15 км {дождь, туман} 9/9 100 м
[Sc]
+10.2 +9.9 98 +8 +8 тепло 1013.1 969.7 +10.1 0.0
С 3 11 км н/о +10.0 +9.7 98 +8 +8 тепло 1014.2 970.7
С 3 30 км н/о +9.6 +9.5 99 +7 +7 тепло 1015.7 972.0
С 5 20 км 8/8 100 м
[Cu Sc Ac As Ci sp]
+10.9 +9.5 91 +8 +8 тепло 1016.1 972.6 0.0
С 5 30 км н/о +11.0 +9.5 90 +8 +8 тепло 1016.5 973.0
СЗ 7 18 км н/о +11.0 +9.2 89 +8 +8 тепло 1017.5 974.0
СЗ 2 30 км 9/9 300 м
[Cu Sc Ac As]
+10.9 +8.9 87 +10 +10 тепло 1016.7 973.2
СЗ 3 30 км н/о +11.5 +8.9 84 +10 +10 тепло 1016.2 972.8
З 3 30 км н/о +12.3 +9.3 82 +11 +11 тепло 1015.1 971.9
З 4 30 км 9/9 600 м
[Cu Sc]
+11.8 +8.9 82 +10 +10 тепло 1014.9 971.6
З 6 30 км {дождь} н/о +10.4 +8.1 86 +7 +7 тепло 1015.2 971.7
ЮЗ 3 9000 м слаб. дождь н/о +10.0 +8.3 89 +8 +8 тепло 1014.9 971.3
ЮЗ 5 7000 м слаб. дождь 10/10 200 м
[Frnb Ac As]
+9.3 +8.7 96 +6 +6 тепло 1014.5 970.8 +12.5 0.0
ЮЗ 4 20 км {морось} н/о +9.1 +8.8 98 +6 +6 тепло 1013.3 969.7
Местоположение метеостанции Сантьяго (Испания): широта 42.90 долгота -8.43 высота над уровнем моря 370 м.
В архиве по умолчанию представлена погода в Сантьяго за последнюю неделю. Архивные данные за месяц целиком и за предыдущие месяцы, начиная с января 2011 года, Вы можете получить, выбрав интересующий диапазон дат из раскрывающегося списка и нажав кнопку "Найти!".
*Определитесь, кто Вы:
Внимание! Время в таблицах - всемирное. Для получения местного времени необходимо прибавить поправку, которая равна 1 ч.
Смотрите также архив погоды в соседних городах и на ближайших метеорологических станциях:
Партнеры нашего сайта:      
Пояснения к столбцам:
  • Ветер - указаны скорость ветра в м/с - средняя за 10 мин, порывы в срок и между сроками (в фигурных скобках) и направление, откуда дует ветер: С - северный,
  • СВ - северо-восточный, В - восточный, ЮВ - юго-восточный, Ю - южный, ЮЗ - юго-западный, З - западный, СЗ - северо-западный.
  • Видимость - горизонтальная дальность видимости в метрах или километрах. При видимости от 1 до 10 км при отсутствии осадков обычно наблюдается дымка, при ухудшении видимости до 1 км и менее - туман. В сухую погоду видимость может ухудшаться дымом, пылью или мглою.
  • Явления - указаны атмосферные явления, наблюдавшиеся в срок или в последний час перед сроком; фигурными скобками обозначены явления, наблюдавшиеся между сроками (за 1-3 часа до срока); квадратными скобками обозначены град или гололедные отложения с указанием их диаметра в мм.
  • Облачность - указаны через наклонную черту общая и нижняя облачность в баллах и высота нижней границы облаков в метрах; квадратными скобками обозначены формы облаков: Ci - перистые, Cs - перисто-слоистые, Cc - перисто-кучевые, Ac - высококучевые, As - высокослоистые, Sc - слоисто-кучевые, Ns - слоисто-дождевые, Cu - кучевые, Cb - кучево-дождевые. Подробнее классификацию облаков см. в Атласе облаков (PDF).
  • T - Температура воздуха - температура, измеренная на высоте 2 м над землей.
  • Td - Температура точки росы - температура, при понижении до которой содержащийся в воздухе водяной пар достигнет насыщения.
  • f - Относительная влажность воздуха - влажноcть воздуха, измеренная на высоте 2 м над землей.
  • Te - Эффективная температура - температура, которую ощущает одетый по сезону человек в тени. Характеристика душности погоды. При расчете учитывается влияние влажности воздуха и скорости ветра на теплоощущения человека.
  • Tes - Эффективная температура на солнце - температура, которую ощущает человек, с поправкой на солнечный нагрев. Характеристика знойности погоды. Зависит от высоты солнца над горизонтом, облачности и скорости ветра. Ночью, в пасмурную погоду, а также при ветре 12 м/с и более поправка равна нулю.
  • P - Атмосферное давление - приведенное к уровню моря атмосферное давление.
  • Po - Атмосферное давление - измеренное на уровне метеостанции атмосферное давление.
  • Tmin - Минимальная температура - минимум температуры воздуха на высоте 2 м над землей.
  • Tmax - Максимальная температура - максимум температуры воздуха на высоте 2 м над землей.
  • R - Количество осадков - Количество выпавших осадков за период времени, мм. При наведении курсора мыши на число - период времени, за который выпало указанное количество осадков.
  • R24 - Количество осадков - Количество выпавших осадков за 24 часа, мм.
  • S - Снежный покров - Высота снежного покрова, см. При наведении курсора мыши на число - состояние снежного покрова и степень покрытия местности в баллах.